This is the latest recevied weather packets stored in our database for station/object KA0EGE. If no packets are shown the sender has not sent any weather packets the latest 10 day(s).
| Time | Temp. | Humidity | Pressure | Rain* | Wind** | Luminosity | Snow |
|---|---|---|---|---|---|---|---|
| 1778114732 | 23.89° C | 86% | 1016.7 hPa | 0 mm | - | 0 W/m² | - |
| 1778114429 | 23.89° C | 86% | 1016.9 hPa | 0 mm | - | 0 W/m² | - |
| 1778114125 | 24.44° C | 85% | 1016.6 hPa | 0 mm | - | 0 W/m² | - |
| 1778113820 | 24.44° C | 84% | 1016.6 hPa | 0 mm | - | 1 W/m² | - |
| 1778113517 | 24.44° C | 83% | 1016.5 hPa | 0 mm | - | 2 W/m² | - |
| 1778113213 | 24.44° C | 83% | 1016.5 hPa | 0 mm | - | 3 W/m² | - |
| 1778112909 | 24.44° C | 82% | 1016.7 hPa | 0 mm | - | 4 W/m² | - |
| 1778112607 | 24.44° C | 82% | 1016.4 hPa | 0 mm | - | 6 W/m² | - |
| 1778112303 | 25° C | 82% | 1016.5 hPa | 0 mm | - | 8 W/m² | - |
| 1778111998 | 25° C | 82% | 1016.3 hPa | 0 mm | - | 12 W/m² | - |
| 1778111696 | 25° C | 82% | 1016 hPa | 0 mm | - | 28 W/m² | - |
| 1778111392 | 25° C | 81% | 1016.1 hPa | 0 mm | - | 36 W/m² | - |
| 1778111089 | 25° C | 81% | 1016.1 hPa | 0 mm | - | 40 W/m² | - |
| 1778110787 | 25° C | 80% | 1016.2 hPa | 0 mm | - | 45 W/m² | - |
| 1778110483 | 25° C | 80% | 1016.3 hPa | 0 mm | - | 46 W/m² | - |
| 1778110180 | 25° C | 79% | 1016.4 hPa | 0 mm | - | 44 W/m² | - |
| 1778109876 | 25.56° C | 78% | 1016.4 hPa | 0 mm | - | 58 W/m² | - |
| 1778109572 | 25.56° C | 77% | 1016.4 hPa | 0 mm | - | 65 W/m² | - |
| 1778109270 | 25.56° C | 76% | 1016.3 hPa | 0 mm | - | 77 W/m² | - |
| 1778108967 | 25.56° C | 76% | 1016.2 hPa | 0 mm | - | 88 W/m² | - |
| 1778108663 | 26.11° C | 76% | 1016.3 hPa | 0 mm | - | 83 W/m² | - |
| 1778108360 | 25.56° C | 77% | 1016.5 hPa | 0 mm | - | 96 W/m² | - |
| 1778108057 | 26.11° C | 76% | 1016.4 hPa | 0 mm | - | 88 W/m² | - |
| 1778107754 | 26.11° C | 76% | 1016.5 hPa | 0 mm | - | 93 W/m² | - |
| 1778107451 | 26.11° C | 76% | 1016.5 hPa | 0 mm | - | 90 W/m² | - |
* Rain latest hour (hover to see other rain measurements)
** Current wind speed in m/s (hover to see current wind gust speed)